| time (UTC) | temp C | wind direction | speed KPH | gust KPH | rain 1hr cm | rain 24hr cm | rain mn cm | humidity % | barometer mb |
| 20260906232557 | 23 | 57 | 4.8 | 22.5 | 0.00 | 0.00 | 0.00 | 25 | 1017.8 |
| 20260906232054 | 23 | 172 | 3.2 | 11.3 | 0.00 | 0.00 | 0.00 | 25 | 1017.9 |
| 20260906231606 | 23 | 203 | 1.6 | 11.3 | 0.00 | 0.00 | 0.00 | 25 | 1017.9 |
| 20260906231051 | 23 | 73 | 3.2 | 12.9 | 0.00 | 0.00 | 0.00 | 24 | 1017.8 |
| 20260906230554 | 24 | 323 | 1.6 | 12.9 | 0.00 | 0.00 | 0.00 | 24 | 1017.9 |
| 20260906230105 | 24 | 348 | 1.6 | 8.0 | 0.00 | 0.00 | 0.00 | 24 | 1017.9 |
| 20260906225553 | 24 | 0 | 3.2 | 16.1 | 0.00 | 0.00 | 0.00 | 23 | 1017.8 |
| 20260906225054 | 24 | 241 | 4.8 | 16.1 | 0.00 | 0.00 | 0.00 | 23 | 1017.8 |
| 20260906224604 | 24 | 251 | 1.6 | 14.5 | 0.00 | 0.00 | 0.00 | 22 | 1017.8 |
| 20260906224054 | 24 | 321 | 6.4 | 16.1 | 0.00 | 0.00 | 0.00 | 21 | 1017.9 |
| 20260906223554 | 24 | 336 | 3.2 | 16.1 | 0.00 | 0.00 | 0.00 | 22 | 1018.0 |
| 20260906223106 | 25 | 315 | 4.8 | 16.1 | 0.00 | 0.00 | 0.00 | 22 | 1017.8 |
| 20260906222553 | 25 | 315 | 4.8 | 17.7 | 0.00 | 0.00 | 0.00 | 20 | 1017.9 |
| 20260906222056 | 25 | 203 | 3.2 | 17.7 | 0.00 | 0.00 | 0.00 | 20 | 1017.9 |
| 20260906221605 | 25 | 251 | 3.2 | 11.3 | 0.00 | 0.00 | 0.00 | 21 | 1017.9 |
| 20260906221056 | 25 | 198 | 3.2 | 11.3 | 0.00 | 0.00 | 0.00 | 21 | 1017.7 |
| 20260906220554 | 25 | 0 | 3.2 | 17.7 | 0.00 | 0.00 | 0.00 | 22 | 1017.7 |
| 20260906215551 | 25 | 227 | 4.8 | 14.5 | 0.00 | 0.00 | 0.00 | 21 | 1017.9 |
| 20260906215053 | 25 | 176 | 1.6 | 16.1 | 0.00 | 0.00 | 0.00 | 22 | 1018.0 |
| 20260906214600 | 25 | 50 | 3.2 | 17.7 | 0.00 | 0.00 | 0.00 | 21 | 1018.1 |
| 20260906214057 | 25 | 177 | 4.8 | 17.7 | 0.00 | 0.00 | 0.00 | 21 | 1018.2 |
| 20260906213557 | 25 | 196 | 3.2 | 14.5 | 0.00 | 0.00 | 0.00 | 21 | 1018.4 |
| 20260906213104 | 26 | 149 | 3.2 | 14.5 | 0.00 | 0.00 | 0.00 | 19 | 1018.4 |
| 20260906212554 | 26 | 274 | 3.2 | 9.7 | 0.00 | 0.00 | 0.00 | 21 | 1018.4 |
| 20260906212056 | 27 | 103 | 3.2 | 9.7 | 0.00 | 0.00 | 0.00 | 20 | 1018.4 |
| 20260906211604 | 26 | 171 | 4.8 | 9.7 | 0.00 | 0.00 | 0.00 | 20 | 1018.4 |
| 20260906211054 | 27 | 137 | 1.6 | 6.4 | 0.00 | 0.00 | 0.00 | 21 | 1018.4 |
| 20260906210554 | 27 | 215 | 1.6 | 9.7 | 0.00 | 0.00 | 0.00 | 19 | 1018.5 |
| 20260906210107 | 27 | 235 | 3.2 | 22.5 | 0.00 | 0.00 | 0.00 | 23 | 1018.5 |
| 20260906205554 | 27 | 234 | 3.2 | 22.5 | 0.00 | 0.00 | 0.00 | 20 | 1018.4 |
| 20260906205053 | 28 | 90 | 4.8 | 20.9 | 0.00 | 0.00 | 0.00 | 20 | 1018.7 |
| 20260906204607 | 27 | 311 | 1.6 | 9.7 | 0.00 | 0.00 | 0.00 | 21 | 1018.3 |
| 20260906204055 | 27 | 265 | 3.2 | 16.1 | 0.00 | 0.00 | 0.00 | 22 | 1018.6 |
| 20260906203556 | 27 | 41 | 3.2 | 17.7 | 0.00 | 0.00 | 0.00 | 20 | 1018.8 |
| 20260906203104 | 27 | 249 | 6.4 | 17.7 | 0.00 | 0.00 | 0.00 | 20 | 1018.8 |
| 20260906202557 | 27 | 294 | 3.2 | 17.7 | 0.00 | 0.00 | 0.00 | 19 | 1018.8 |
| 20260906202055 | 27 | 12 | 3.2 | 17.7 | 0.00 | 0.00 | 0.00 | 21 | 1018.8 |
| 20260906201602 | 27 | 134 | 1.6 | 12.9 | 0.00 | 0.00 | 0.00 | 22 | 1018.9 |
| 20260906201052 | 26 | 273 | 4.8 | 24.1 | 0.00 | 0.00 | 0.00 | 20 | 1018.9 |
| 20260906200551 | 26 | 197 | 3.2 | 24.1 | 0.00 | 0.00 | 0.00 | 22 | 1018.9 |
| 20260906195553 | 27 | 231 | 3.2 | 16.1 | 0.00 | 0.00 | 0.00 | 22 | 1019.1 |
| 20260906195053 | 27 | 203 | 3.2 | 16.1 | 0.00 | 0.00 | 0.00 | 20 | 1019.2 |
| 20260906194602 | 27 | 244 | 3.2 | 14.5 | 0.00 | 0.00 | 0.00 | 23 | 1019.3 |
| 20260906194054 | 27 | 298 | 4.8 | 14.5 | 0.00 | 0.00 | 0.00 | 22 | 1019.2 |
| 20260906193556 | 27 | 78 | 1.6 | 11.3 | 0.00 | 0.00 | 0.00 | 22 | 1019.5 |
| 20260906193104 | 26 | 189 | 3.2 | 12.9 | 0.00 | 0.00 | 0.00 | 23 | 1019.5 |
| 20260906192553 | 26 | 277 | 3.2 | 12.9 | 0.00 | 0.00 | 0.00 | 22 | 1019.7 |
| 20260906192050 | 27 | 155 | 1.6 | 12.9 | 0.00 | 0.00 | 0.00 | 20 | 1019.7 |
| 20260906191610 | 27 | 10 | 3.2 | 19.3 | 0.00 | 0.00 | 0.00 | 22 | 1019.7 |
| 20260906191050 | 26 | 279 | 3.2 | 19.3 | 0.00 | 0.00 | 0.00 | 24 | 1019.8 |
| 20260906190554 | 26 | 224 | 3.2 | 12.9 | 0.00 | 0.00 | 0.00 | 23 | 1020.1 |
| 20260906185554 | 26 | 234 | 3.2 | 12.9 | 0.00 | 0.00 | 0.00 | 22 | 1020.2 |
| 20260906185054 | 26 | 289 | 1.6 | 9.7 | 0.00 | 0.00 | 0.00 | 22 | 1020.3 |
| 20260906184604 | 26 | 353 | 1.6 | 12.9 | 0.00 | 0.00 | 0.00 | 23 | 1020.4 |
| 20260906184053 | 27 | 232 | 1.6 | 12.9 | 0.00 | 0.00 | 0.00 | 24 | 1020.4 |
| 20260906183553 | 26 | 0 | 3.2 | 14.5 | 0.00 | 0.00 | 0.00 | 23 | 1020.5 |
| 20260906183108 | 25 | 0 | 6.4 | 14.5 | 0.00 | 0.00 | 0.00 | 22 | 1020.6 |
| 20260906182554 | 26 | 146 | 3.2 | 9.7 | 0.00 | 0.00 | 0.00 | 22 | 1020.6 |
| 20260906182055 | 26 | 292 | 1.6 | 12.9 | 0.00 | 0.00 | 0.00 | 26 | 1020.7 |
| 20260906181609 | 26 | 288 | 1.6 | 12.9 | 0.00 | 0.00 | 0.00 | 24 | 1020.8 |
| 20260906181054 | 25 | 134 | 1.6 | 12.9 | 0.00 | 0.00 | 0.00 | 24 | 1020.8 |
| 20260906180551 | 24 | 278 | 4.8 | 12.9 | 0.00 | 0.00 | 0.00 | 23 | 1021.0 |
| 20260906180111 | 25 | 174 | 3.2 | 12.9 | 0.00 | 0.00 | 0.00 | 24 | 1021.1 |
| 20260906175552 | 24 | 0 | 3.2 | 14.5 | 0.00 | 0.00 | 0.00 | 25 | 1021.1 |
| 20260906175057 | 24 | 277 | 3.2 | 16.1 | 0.00 | 0.00 | 0.00 | 24 | 1021.3 |
| 20260906174603 | 25 | 223 | 4.8 | 16.1 | 0.00 | 0.00 | 0.00 | 25 | 1021.4 |
| 20260906174056 | 23 | 99 | 3.2 | 8.0 | 0.00 | 0.00 | 0.00 | 25 | 1021.4 |
| 20260906173553 | 24 | 0 | 1.6 | 6.4 | 0.00 | 0.00 | 0.00 | 26 | 1021.4 |
| 20260906173105 | 24 | 1 | 3.2 | 6.4 | 0.00 | 0.00 | 0.00 | 30 | 1021.5 |
| 20260906172554 | 23 | 0 | 1.6 | 4.8 | 0.00 | 0.00 | 0.00 | 28 | 1021.4 |
| 20260906172053 | 23 | 269 | 0.0 | 8.0 | 0.00 | 0.00 | 0.00 | 27 | 1021.6 |
| 20260906171606 | 23 | 328 | 0.0 | 8.0 | 0.00 | 0.00 | 0.00 | 30 | 1021.7 |
| 20260906171054 | 22 | 80 | 3.2 | 9.7 | 0.00 | 0.00 | 0.00 | 31 | 1021.8 |
| 20260906170551 | 22 | 153 | 3.2 | 9.7 | 0.00 | 0.00 | 0.00 | 33 | 1021.9 |
| 20260906170123 | 21 | 111 | 1.6 | 9.7 | 0.00 | 0.00 | 0.00 | 35 | 1022.0 |
| 20260906165550 | 20 | 120 | 3.2 | 8.0 | 0.00 | 0.00 | 0.00 | 35 | 1022.1 |
| 20260906165055 | 20 | 174 | 1.6 | 8.0 | 0.00 | 0.00 | 0.00 | 36 | 1022.1 |
| 20260906164603 | 19 | 78 | 3.2 | 6.4 | 0.00 | 0.00 | 0.00 | 39 | 1022.1 |
| 20260906164052 | 18 | 0 | 1.6 | 6.4 | 0.00 | 0.00 | 0.00 | 39 | 1022.3 |
| 20260906163552 | 18 | 0 | 1.6 | 6.4 | 0.00 | 0.00 | 0.00 | 41 | 1022.3 |
| 20260906163114 | 19 | 205 | 3.2 | 6.4 | 0.00 | 0.00 | 0.00 | 40 | 1022.3 |
| 20260906162552 | 18 | 104 | 3.2 | 6.4 | 0.00 | 0.00 | 0.00 | 40 | 1022.4 |
| 20260906162054 | 18 | 142 | 1.6 | 6.4 | 0.00 | 0.00 | 0.00 | 41 | 1022.5 |
| 20260906161604 | 18 | 143 | 3.2 | 8.0 | 0.00 | 0.00 | 0.00 | 40 | 1022.5 |
| 20260906161053 | 18 | 145 | 3.2 | 8.0 | 0.00 | 0.00 | 0.00 | 43 | 1022.5 |
| 20260906160555 | 18 | 149 | 1.6 | 8.0 | 0.00 | 0.00 | 0.00 | 41 | 1022.6 |
| 20260906160104 | 17 | 118 | 3.2 | 6.4 | 0.00 | 0.00 | 0.00 | 44 | 1022.6 |
| 20260906155554 | 17 | 170 | 3.2 | 8.0 | 0.00 | 0.00 | 0.00 | 43 | 1022.6 |
| 20260906155057 | 16 | 157 | 3.2 | 8.0 | 0.00 | 0.00 | 0.00 | 43 | 1022.7 |
| 20260906154604 | 16 | 140 | 1.6 | 4.8 | 0.00 | 0.00 | 0.00 | 48 | 1022.8 |
| 20260906154054 | 15 | 128 | 1.6 | 4.8 | 0.00 | 0.00 | 0.00 | 48 | 1022.5 |
| 20260906153556 | 15 | 111 | 1.6 | 4.8 | 0.00 | 0.00 | 0.00 | 48 | 1022.6 |
| 20260906153104 | 15 | 119 | 0.0 | 4.8 | 0.00 | 0.00 | 0.00 | 52 | 1022.5 |
| 20260906152551 | 14 | 112 | 1.6 | 4.8 | 0.00 | 0.00 | 0.00 | 50 | 1022.5 |
| 20260906152051 | 13 | 140 | 1.6 | 4.8 | 0.00 | 0.00 | 0.00 | 52 | 1022.5 |
| 20260906151606 | 13 | 130 | 1.6 | 4.8 | 0.00 | 0.00 | 0.00 | 54 | 1022.4 |
| 20260906151051 | 12 | 170 | 1.6 | 4.8 | 0.00 | 0.00 | 0.00 | 52 | 1022.5 |
| 20260906150554 | 12 | 132 | 1.6 | 4.8 | 0.00 | 0.00 | 0.00 | 57 | 1022.7 |
| 20260906150113 | 11 | 132 | 1.6 | 4.8 | 0.00 | 0.00 | 0.00 | 58 | 1022.6 |
| 20260906145554 | 11 | 0 | 3.2 | 4.8 | 0.00 | 0.00 | 0.00 | 59 | 1022.5 |
| 20260906145054 | 10 | 128 | 1.6 | 4.8 | 0.00 | 0.00 | 0.00 | 63 | 1022.5 |
| 20260906144603 | 10 | 122 | 1.6 | 4.8 | 0.00 | 0.00 | 0.00 | 64 | 1022.7 |
| 20260906144053 | 8 | 126 | 1.6 | 3.2 | 0.00 | 0.00 | 0.00 | 68 | 1022.8 |
| 20260906143551 | 7 | 0 | 0.0 | 1.6 | 0.00 | 0.00 | 0.00 | 75 | 1022.7 |
| 20260906143104 | 7 | 0 | 0.0 | 1.6 | 0.00 | 0.00 | 0.00 | 75 | 1022.8 |
| 20260906142550 | 6 | 67 | 0.0 | 3.2 | 0.00 | 0.00 | 0.00 | 77 | 1022.6 |
| 20260906142054 | 5 | 0 | 0.0 | 3.2 | 0.00 | 0.00 | 0.00 | 79 | 1022.6 |
| 20260906141602 | 5 | 57 | 0.0 | 3.2 | 0.00 | 0.00 | 0.00 | 80 | 1022.6 |
| 20260906141054 | 5 | 0 | 0.0 | 3.2 | 0.00 | 0.00 | 0.00 | 80 | 1022.8 |
| 20260906140557 | 4 | 0 | 0.0 | 3.2 | 0.00 | 0.00 | 0.00 | 83 | 1022.8 |
| 20260906140104 | 3 | 0 | 0.0 | 1.6 | 0.00 | 0.00 | 0.00 | 83 | 1022.7 |
| 20260906135558 | 3 | 0 | 0.0 | 3.2 | 0.00 | 0.00 | 0.00 | 81 | 1022.8 |
| 20260906135054 | 3 | 0 | 0.0 | 3.2 | 0.00 | 0.00 | 0.00 | 83 | 1022.9 |
| 20260906134604 | 2 | 0 | 0.0 | 1.6 | 0.00 | 0.00 | 0.00 | 83 | 1022.8 |
| 20260906134054 | 2 | 0 | 0.0 | 1.6 | 0.00 | 0.00 | 0.00 | 84 | 1022.7 |
| 20260906133553 | 2 | 201 | 0.0 | 1.6 | 0.00 | 0.00 | 0.00 | 84 | 1022.8 |
| 20260906133136 | 2 | 0 | 0.0 | 1.6 | 0.00 | 0.00 | 0.00 | 85 | 1022.9 |
| 20260906132554 | 2 | 0 | 0.0 | 1.6 | 0.00 | 0.00 | 0.00 | 84 | 1022.8 |
| 20260906132055 | 2 | 0 | 0.0 | 0.0 | 0.00 | 0.00 | 0.00 | 84 | 1022.9 |
| 20260906131601 | 2 | 0 | 0.0 | 1.6 | 0.00 | 0.00 | 0.00 | 86 | 1022.9 |
| 20260906131054 | 2 | 0 | 0.0 | 1.6 | 0.00 | 0.00 | 0.00 | 84 | 1022.8 |
| 20260906130554 | 2 | 0 | 0.0 | 3.2 | 0.00 | 0.00 | 0.00 | 81 | 1022.8 |
| 20260906130109 | 2 | 0 | 0.0 | 3.2 | 0.00 | 0.00 | 0.00 | 83 | 1022.8 |
| 20260906125554 | 2 | 0 | 0.0 | 3.2 | 0.00 | 0.00 | 0.00 | 82 | 1022.8 |
| 20260906125053 | 2 | 0 | 0.0 | 3.2 | 0.00 | 0.00 | 0.00 | 83 | 1022.8 |
| 20260906124602 | 2 | 201 | 0.0 | 3.2 | 0.00 | 0.00 | 0.00 | 83 | 1022.9 |
| 20260906124054 | 2 | 190 | 0.0 | 0.0 | 0.00 | 0.00 | 0.00 | 81 | 1022.8 |
| 20260906123554 | 2 | 0 | 0.0 | 0.0 | 0.00 | 0.00 | 0.00 | 81 | 1022.9 |
| 20260906123103 | 2 | 0 | 0.0 | 0.0 | 0.00 | 0.00 | 0.00 | 84 | 1022.8 |
| 20260906122555 | 2 | 0 | 0.0 | 1.6 | 0.00 | 0.00 | 0.00 | 81 | 1022.8 |
| 20260906122054 | 3 | 0 | 0.0 | 1.6 | 0.00 | 0.00 | 0.00 | 81 | 1022.7 |
| 20260906121606 | 3 | 0 | 0.0 | 1.6 | 0.00 | 0.00 | 0.00 | 79 | 1022.7 |
| 20260906121054 | 3 | 0 | 0.0 | 1.6 | 0.00 | 0.00 | 0.00 | 80 | 1022.7 |
| 20260906120554 | 3 | 0 | 0.0 | 1.6 | 0.00 | 0.00 | 0.00 | 80 | 1022.8 |
| 20260906115555 | 3 | 0 | 0.0 | 1.6 | 0.00 | 0.00 | 0.00 | 80 | 1022.8 |
| 20260906115053 | 3 | 0 | 0.0 | 0.0 | 0.00 | 0.00 | 0.00 | 81 | 1022.8 |
| 20260906114602 | 3 | 0 | 0.0 | 0.0 | 0.00 | 0.00 | 0.00 | 80 | 1022.6 |
| 20260906114054 | 4 | 0 | 0.0 | 0.0 | 0.00 | 0.00 | 0.00 | 79 | 1022.8 |
| 20260906113554 | 4 | 0 | 0.0 | 1.6 | 0.00 | 0.00 | 0.00 | 78 | 1022.7 |
| 20260906113101 | 4 | 0 | 0.0 | 1.6 | 0.00 | 0.00 | 0.00 | 79 | 1022.6 |
| 20260906112554 | 4 | 0 | 0.0 | 1.6 | 0.00 | 0.00 | 0.00 | 78 | 1022.6 |
| 20260906112054 | 4 | 0 | 0.0 | 0.0 | 0.00 | 0.00 | 0.00 | 79 | 1022.6 |
| 20260906111618 | 4 | 0 | 0.0 | 1.6 | 0.00 | 0.00 | 0.00 | 79 | 1022.5 |
| 20260906111054 | 4 | 0 | 0.0 | 1.6 | 0.00 | 0.00 | 0.00 | 78 | 1022.4 |
| 20260906110555 | 4 | 0 | 0.0 | 3.2 | 0.00 | 0.00 | 0.00 | 79 | 1022.4 |
| 20260906105554 | 5 | 0 | 0.0 | 0.0 | 0.00 | 0.00 | 0.00 | 78 | 1022.4 |
| 20260906105054 | 5 | 0 | 0.0 | 0.0 | 0.00 | 0.00 | 0.00 | 78 | 1022.3 |
| 20260906104601 | 5 | 0 | 0.0 | 0.0 | 0.00 | 0.00 | 0.00 | 78 | 1022.4 |
| 20260906104051 | 4 | 0 | 0.0 | 0.0 | 0.00 | 0.00 | 0.00 | 79 | 1022.3 |
| 20260906103550 | 4 | 0 | 0.0 | 0.0 | 0.00 | 0.00 | 0.00 | 79 | 1022.1 |
| 20260906103058 | 4 | 0 | 0.0 | 0.0 | 0.00 | 0.00 | 0.00 | 80 | 1022.1 |
| 20260906102550 | 4 | 0 | 0.0 | 0.0 | 0.00 | 0.00 | 0.00 | 80 | 1022.1 |
| 20260906102052 | 4 | 0 | 0.0 | 0.0 | 0.00 | 0.00 | 0.00 | 78 | 1022.0 |
| 20260906101604 | 4 | 0 | 0.0 | 0.0 | 0.00 | 0.00 | 0.00 | 77 | 1022.0 |
| 20260906101052 | 5 | 0 | 0.0 | 1.6 | 0.00 | 0.00 | 0.00 | 77 | 1021.9 |
| 20260906100550 | 5 | 0 | 0.0 | 1.6 | 0.00 | 0.00 | 0.00 | 77 | 1021.9 |
| 20260906100100 | 5 | 0 | 0.0 | 1.6 | 0.00 | 0.00 | 0.00 | 76 | 1021.8 |
| 20260906095556 | 5 | 0 | 0.0 | 1.6 | 0.00 | 0.00 | 0.00 | 77 | 1021.9 |
| 20260906095050 | 5 | 0 | 0.0 | 0.0 | 0.00 | 0.00 | 0.00 | 77 | 1021.9 |
| 20260906094557 | 5 | 0 | 0.0 | 1.6 | 0.00 | 0.00 | 0.00 | 77 | 1021.9 |
| 20260906094050 | 5 | 0 | 0.0 | 1.6 | 0.00 | 0.00 | 0.00 | 78 | 1021.9 |
| 20260906093550 | 5 | 0 | 0.0 | 1.6 | 0.00 | 0.00 | 0.00 | 77 | 1021.9 |
| 20260906093102 | 5 | 0 | 0.0 | 1.6 | 0.00 | 0.00 | 0.00 | 77 | 1021.9 |
| 20260906092553 | 5 | 0 | 0.0 | 0.0 | 0.00 | 0.00 | 0.00 | 77 | 1021.9 |
| 20260906092053 | 5 | 0 | 0.0 | 1.6 | 0.00 | 0.00 | 0.00 | 75 | 1021.9 |
| 20260906091604 | 5 | 0 | 0.0 | 1.6 | 0.00 | 0.00 | 0.00 | 75 | 1021.9 |
| 20260906091053 | 5 | 0 | 0.0 | 1.6 | 0.00 | 0.00 | 0.00 | 74 | 1021.9 |
| 20260906090552 | 5 | 0 | 0.0 | 3.2 | 0.00 | 0.00 | 0.00 | 75 | 1022.0 |
| 20260906090141 | 5 | 0 | 0.0 | 3.2 | 0.00 | 0.00 | 0.00 | 77 | 1021.9 |
| 20260906085556 | 5 | 190 | 0.0 | 1.6 | 0.00 | 0.00 | 0.00 | 75 | 1021.9 |
| 20260906085052 | 5 | 0 | 0.0 | 1.6 | 0.00 | 0.00 | 0.00 | 75 | 1021.7 |
| 20260906084600 | 6 | 0 | 0.0 | 1.6 | 0.00 | 0.00 | 0.00 | 75 | 1021.9 |
| 20260906084055 | 6 | 0 | 0.0 | 3.2 | 0.00 | 0.00 | 0.00 | 73 | 1022.0 |
| 20260906083557 | 6 | 0 | 0.0 | 3.2 | 0.00 | 0.00 | 0.00 | 73 | 1022.0 |
| 20260906083102 | 6 | 190 | 0.0 | 3.2 | 0.00 | 0.00 | 0.00 | 74 | 1021.9 |
| 20260906082553 | 6 | 206 | 0.0 | 1.6 | 0.00 | 0.00 | 0.00 | 73 | 1022.0 |
| 20260906082054 | 6 | 206 | 0.0 | 1.6 | 0.00 | 0.00 | 0.00 | 72 | 1021.9 |
| 20260906081603 | 6 | 0 | 0.0 | 1.6 | 0.00 | 0.00 | 0.00 | 73 | 1022.2 |
| 20260906081057 | 6 | 0 | 0.0 | 1.6 | 0.00 | 0.00 | 0.00 | 74 | 1022.1 |
| 20260906080556 | 6 | 0 | 0.0 | 3.2 | 0.00 | 0.00 | 0.00 | 74 | 1022.1 |
| 20260906080107 | 6 | 0 | 0.0 | 3.2 | 0.00 | 0.00 | 0.00 | 76 | 1022.1 |
| 20260906075554 | 6 | 206 | 0.0 | 3.2 | 0.00 | 0.00 | 0.00 | 73 | 1022.1 |
| 20260906075057 | 6 | 0 | 0.0 | 1.6 | 0.00 | 0.00 | 0.00 | 73 | 1022.1 |
| 20260906074601 | 6 | 0 | 0.0 | 1.6 | 0.00 | 0.00 | 0.00 | 72 | 1022.1 |
| 20260906074054 | 7 | 0 | 0.0 | 1.6 | 0.00 | 0.00 | 0.00 | 72 | 1022.1 |
| 20260906073554 | 7 | 0 | 0.0 | 1.6 | 0.00 | 0.00 | 0.00 | 71 | 1022.0 |
| 20260906073101 | 7 | 0 | 0.0 | 1.6 | 0.00 | 0.00 | 0.00 | 72 | 1022.1 |
| 20260906072557 | 6 | 0 | 0.0 | 6.4 | 0.00 | 0.00 | 0.00 | 71 | 1022.1 |
| 20260906072055 | 7 | 0 | 0.0 | 6.4 | 0.00 | 0.00 | 0.00 | 71 | 1022.3 |
| 20260906071604 | 6 | 0 | 1.6 | 6.4 | 0.00 | 0.00 | 0.00 | 73 | 1022.4 |
| 20260906071054 | 7 | 0 | 0.0 | 3.2 | 0.00 | 0.00 | 0.00 | 72 | 1022.2 |
| 20260906070555 | 7 | 0 | 0.0 | 3.2 | 0.00 | 0.00 | 0.00 | 71 | 1022.3 |
| 20260906065553 | 7 | 0 | 0.0 | 1.6 | 0.00 | 0.00 | 0.00 | 71 | 1022.4 |
| 20260906065055 | 7 | 0 | 0.0 | 1.6 | 0.00 | 0.00 | 0.00 | 72 | 1022.5 |
| 20260906064558 | 7 | 0 | 0.0 | 1.6 | 0.00 | 0.00 | 0.00 | 72 | 1022.5 |
| 20260906064053 | 7 | 212 | 0.0 | 1.6 | 0.00 | 0.00 | 0.00 | 70 | 1022.5 |
| 20260906063554 | 7 | 0 | 0.0 | 1.6 | 0.00 | 0.00 | 0.00 | 70 | 1022.3 |
| 20260906063058 | 7 | 0 | 0.0 | 0.0 | 0.00 | 0.00 | 0.00 | 71 | 1022.5 |
| 20260906062554 | 7 | 0 | 0.0 | 1.6 | 0.00 | 0.00 | 0.00 | 69 | 1022.5 |
| 20260906062056 | 7 | 0 | 0.0 | 1.6 | 0.00 | 0.00 | 0.00 | 69 | 1022.4 |
| 20260906061607 | 8 | 0 | 0.0 | 1.6 | 0.00 | 0.00 | 0.00 | 68 | 1022.4 |
| 20260906061056 | 8 | 0 | 0.0 | 0.0 | 0.00 | 0.00 | 0.00 | 69 | 1022.5 |
| 20260906060554 | 7 | 0 | 0.0 | 0.0 | 0.00 | 0.00 | 0.00 | 69 | 1022.5 |
| 20260906060106 | 8 | 0 | 0.0 | 0.0 | 0.00 | 0.00 | 0.00 | 66 | 1022.6 |
| 20260906055554 | 8 | 0 | 0.0 | 1.6 | 0.00 | 0.00 | 0.00 | 65 | 1022.5 |
| 20260906055054 | 8 | 0 | 0.0 | 1.6 | 0.00 | 0.00 | 0.00 | 67 | 1022.7 |
| 20260906054607 | 8 | 0 | 0.0 | 1.6 | 0.00 | 0.00 | 0.00 | 67 | 1022.8 |
| 20260906054054 | 8 | 0 | 0.0 | 0.0 | 0.00 | 0.00 | 0.00 | 67 | 1022.6 |
| 20260906053554 | 8 | 0 | 0.0 | 1.6 | 0.00 | 0.00 | 0.00 | 68 | 1022.6 |
| 20260906053103 | 8 | 0 | 0.0 | 1.6 | 0.00 | 0.00 | 0.00 | 68 | 1022.6 |
| 20260906052555 | 7 | 0 | 0.0 | 1.6 | 0.00 | 0.00 | 0.00 | 69 | 1022.6 |
| 20260906052054 | 8 | 0 | 0.0 | 1.6 | 0.00 | 0.00 | 0.00 | 67 | 1022.5 |
| 20260906051613 | 8 | 0 | 0.0 | 1.6 | 0.00 | 0.00 | 0.00 | 67 | 1022.5 |
| 20260906051052 | 8 | 0 | 0.0 | 1.6 | 0.00 | 0.00 | 0.00 | 67 | 1022.5 |
| 20260906050551 | 8 | 0 | 0.0 | 1.6 | 0.00 | 0.00 | 0.00 | 66 | 1022.4 |
| 20260906045553 | 8 | 0 | 0.0 | 3.2 | 0.00 | 0.00 | 0.00 | 66 | 1022.4 |
| 20260906045055 | 8 | 0 | 0.0 | 3.2 | 0.00 | 0.00 | 0.00 | 69 | 1022.4 |
| 20260906044608 | 8 | 0 | 0.0 | 3.2 | 0.00 | 0.00 | 0.00 | 64 | 1022.5 |
| 20260906044050 | 9 | 0 | 0.0 | 3.2 | 0.00 | 0.00 | 0.00 | 62 | 1022.5 |
| 20260906043551 | 9 | 0 | 0.0 | 0.0 | 0.00 | 0.00 | 0.00 | 64 | 1022.7 |
| 20260906043101 | 10 | 0 | 0.0 | 1.6 | 0.00 | 0.00 | 0.00 | 61 | 1022.7 |
| 20260906042553 | 9 | 0 | 0.0 | 1.6 | 0.00 | 0.00 | 0.00 | 62 | 1022.6 |
| 20260906042052 | 10 | 186 | 0.0 | 1.6 | 0.00 | 0.00 | 0.00 | 65 | 1022.5 |
| 20260906041602 | 10 | 0 | 0.0 | 0.0 | 0.00 | 0.00 | 0.00 | 60 | 1022.5 |
| 20260906041052 | 10 | 0 | 0.0 | 1.6 | 0.00 | 0.00 | 0.00 | 62 | 1022.5 |
| 20260906040551 | 11 | 0 | 0.0 | 1.6 | 0.00 | 0.00 | 0.00 | 59 | 1022.3 |
| 20260906040139 | 10 | 0 | 0.0 | 1.6 | 0.00 | 0.00 | 0.00 | 61 | 1022.2 |
| 20260906035551 | 10 | 0 | 0.0 | 1.6 | 0.00 | 0.00 | 0.00 | 61 | 1022.2 |
| 20260906035051 | 11 | 0 | 0.0 | 1.6 | 0.00 | 0.00 | 0.00 | 58 | 1022.2 |
| 20260906034605 | 11 | 186 | 0.0 | 0.0 | 0.00 | 0.00 | 0.00 | 59 | 1022.1 |
| 20260906034051 | 11 | 0 | 0.0 | 1.6 | 0.00 | 0.00 | 0.00 | 61 | 1022.1 |
| 20260906033552 | 11 | 0 | 0.0 | 1.6 | 0.00 | 0.00 | 0.00 | 60 | 1021.9 |
| 20260906033107 | 11 | 0 | 0.0 | 1.6 | 0.00 | 0.00 | 0.00 | 59 | 1021.8 |
| 20260906032551 | 11 | 0 | 0.0 | 1.6 | 0.00 | 0.00 | 0.00 | 59 | 1021.7 |
| 20260906032052 | 12 | 0 | 0.0 | 1.6 | 0.00 | 0.00 | 0.00 | 58 | 1021.8 |
| 20260906031601 | 12 | 0 | 0.0 | 1.6 | 0.00 | 0.00 | 0.00 | 57 | 1021.7 |
| 20260906031051 | 12 | 0 | 0.0 | 0.0 | 0.00 | 0.00 | 0.00 | 56 | 1021.7 |
| 20260906030553 | 12 | 0 | 0.0 | 0.0 | 0.00 | 0.00 | 0.00 | 56 | 1021.5 |
| 20260906030104 | 13 | 0 | 0.0 | 0.0 | 0.00 | 0.00 | 0.00 | 53 | 1021.5 |
| 20260906025551 | 13 | 0 | 0.0 | 1.6 | 0.00 | 0.00 | 0.00 | 52 | 1021.4 |
| 20260906025051 | 13 | 0 | 0.0 | 3.2 | 0.00 | 0.00 | 0.00 | 52 | 1021.3 |
| 20260906024612 | 13 | 0 | 0.0 | 3.2 | 0.00 | 0.00 | 0.00 | 49 | 1021.3 |
| 20260906024052 | 13 | 0 | 0.0 | 3.2 | 0.00 | 0.00 | 0.00 | 52 | 1021.2 |
| 20260906023550 | 13 | 0 | 0.0 | 0.0 | 0.00 | 0.00 | 0.00 | 48 | 1021.0 |
| 20260906023103 | 14 | 0 | 0.0 | 0.0 | 0.00 | 0.00 | 0.00 | 47 | 1020.9 |
| 20260906022552 | 14 | 0 | 0.0 | 0.0 | 0.00 | 0.00 | 0.00 | 44 | 1020.9 |
| 20260906022053 | 15 | 0 | 0.0 | 0.0 | 0.00 | 0.00 | 0.00 | 42 | 1020.7 |
| 20260906021601 | 15 | 0 | 0.0 | 0.0 | 0.00 | 0.00 | 0.00 | 42 | 1020.7 |
| 20260906021054 | 15 | 0 | 0.0 | 1.6 | 0.00 | 0.00 | 0.00 | 44 | 1020.6 |
| 20260906020553 | 16 | 0 | 0.0 | 1.6 | 0.00 | 0.00 | 0.00 | 41 | 1020.6 |
| 20260906020103 | 16 | 0 | 0.0 | 1.6 | 0.00 | 0.00 | 0.00 | 39 | 1020.6 |
| 20260906015550 | 16 | 0 | 0.0 | 1.6 | 0.00 | 0.00 | 0.00 | 38 | 1020.5 |
| 20260906015053 | 17 | 0 | 0.0 | 1.6 | 0.00 | 0.00 | 0.00 | 42 | 1020.5 |
| 20260906014559 | 17 | 0 | 0.0 | 1.6 | 0.00 | 0.00 | 0.00 | 36 | 1020.6 |
| 20260906014052 | 18 | 0 | 0.0 | 1.6 | 0.00 | 0.00 | 0.00 | 36 | 1020.5 |
| 20260906013553 | 18 | 0 | 0.0 | 1.6 | 0.00 | 0.00 | 0.00 | 33 | 1020.6 |
| 20260906013117 | 19 | 0 | 0.0 | 1.6 | 0.00 | 0.00 | 0.00 | 31 | 1020.7 |
| 20260906012553 | 20 | 0 | 0.0 | 3.2 | 0.00 | 0.00 | 0.00 | 30 | 1020.6 |
| 20260906012052 | 20 | 0 | 0.0 | 3.2 | 0.00 | 0.00 | 0.00 | 28 | 1020.7 |
| 20260906011604 | 21 | 0 | 0.0 | 6.4 | 0.00 | 0.00 | 0.00 | 26 | 1020.6 |
| 20260906011052 | 21 | 0 | 0.0 | 6.4 | 0.00 | 0.00 | 0.00 | 25 | 1020.6 |
| 20260906010552 | 21 | 0 | 0.0 | 6.4 | 0.00 | 0.00 | 0.00 | 25 | 1020.6 |
| 20260906010106 | 22 | 0 | 0.0 | 11.3 | 0.00 | 0.00 | 0.00 | 24 | 1020.5 |
| 20260906005552 | 22 | 248 | 3.2 | 11.3 | 0.00 | 0.00 | 0.00 | 23 | 1020.5 |
| 20260906005053 | 22 | 0 | 3.2 | 9.7 | 0.00 | 0.00 | 0.00 | 22 | 1020.4 |
| 20260906004601 | 22 | 266 | 1.6 | 8.0 | 0.00 | 0.00 | 0.00 | 21 | 1020.3 |
| 20260906004052 | 22 | 198 | 3.2 | 25.7 | 0.00 | 0.00 | 0.00 | 20 | 1020.3 |
| 20260906003552 | 22 | 207 | 6.4 | 25.7 | 0.00 | 0.00 | 0.00 | 21 | 1020.3 |
| 20260906003102 | 22 | 234 | 3.2 | 16.1 | 0.00 | 0.00 | 0.00 | 20 | 1020.3 |
| 20260906002554 | 23 | 239 | 3.2 | 22.5 | 0.00 | 0.00 | 0.00 | 21 | 1020.3 |
| 20260906002050 | 23 | 207 | 4.8 | 22.5 | 0.00 | 0.00 | 0.00 | 20 | 1020.3 |
| 20260906001608 | 23 | 215 | 4.8 | 16.1 | 0.00 | 0.00 | 0.00 | 21 | 1020.2 |
| 20260906001050 | 23 | 251 | 3.2 | 16.1 | 0.00 | 0.00 | 0.00 | 22 | 1020.3 |
| 20260906000550 | 23 | 271 | 1.6 | 17.7 | 0.00 | 0.00 | 0.00 | 23 | 1020.3 |
| 20260906000101 | 23 | 348 | 3.2 | 17.7 | 0.00 | 0.00 | 0.00 | 21 | 1020.3 |
| 20260905235550 | 23 | 286 | 4.8 | 19.3 | 0.00 | 0.00 | 0.00 | 22 | 1020.4 |
| 20260905235053 | 23 | 132 | 1.6 | 22.5 | 0.00 | 0.00 | 0.00 | 22 | 1020.3 |
| 20260905234559 | 23 | 294 | 4.8 | 22.5 | 0.00 | 0.00 | 0.00 | 21 | 1020.3 |
| 20260905234052 | 23 | 272 | 1.6 | 9.7 | 0.00 | 0.00 | 0.00 | 23 | 1020.1 |
| 20260905233553 | 23 | 265 | 1.6 | 20.9 | 0.00 | 0.00 | 0.00 | 25 | 1020.3 |
| 20260905233104 | 23 | 254 | 4.8 | 20.9 | 0.00 | 0.00 | 0.00 | 22 | 1020.2 |